DQA91F VRMM-VRMK

Flight info

Callsign DQA91F
Flight time 0h 37m
Altitude 14000
Route ATISA1B ATISA DCT TAVES
Aircraft DH8D/M-SDE2E3FGRY/H

Departure

Time 2026-04-17 05:27
Airport Velana International Airport (VRMM)

Arrival

Time 2026-04-17 06:05
Airport Kadhdhoo Airport (VRMK)
Time Latitude Longitude Altitude Speed Heading
2026-04-17 05:08 4.18918 73.52791 13 ft 0 kts 268°
2026-04-17 05:21 4.18918 73.52795 12 ft 2 kts 268°
2026-04-17 05:21 4.18918 73.52811 12 ft 2 kts 268°
2026-04-17 05:21 4.18917 73.52825 13 ft 2 kts 286°
2026-04-17 05:22 4.18911 73.52838 13 ft 2 kts 310°
2026-04-17 05:22 4.18899 73.52847 13 ft 2 kts 335°
2026-04-17 05:22 4.18885 73.52850 13 ft 1 kts 358°
2026-04-17 05:22 4.18883 73.52851 13 ft 0 kts 360°
2026-04-17 05:24 4.18892 73.52851 12 ft 4 kts
2026-04-17 05:24 4.18925 73.52866 13 ft 7 kts 73°
2026-04-17 05:25 4.18951 73.52916 13 ft 10 kts 14°
2026-04-17 05:25 4.19006 73.52956 13 ft 11 kts 83°
2026-04-17 05:25 4.19006 73.53046 13 ft 14 kts 91°
2026-04-17 05:25 4.19053 73.53102 12 ft 2 kts 358°
2026-04-17 05:26 4.19066 73.53102 12 ft 10 kts 358°
2026-04-17 05:27 4.19450 73.53101 13 ft 98 kts 360°
2026-04-17 05:27 4.20352 73.53105 39 ft 151 kts
2026-04-17 05:27 4.21421 73.53159 455 ft 156 kts
2026-04-17 05:27 4.22527 73.53234 936 ft 165 kts
2026-04-17 05:28 4.23750 73.53268 1239 ft 188 kts
2026-04-17 05:28 4.25134 73.53301 1517 ft 209 kts
2026-04-17 05:28 4.26682 73.53326 1683 ft 233 kts 359°
2026-04-17 05:28 4.28277 73.53281 1942 ft 231 kts 358°
2026-04-17 05:29 4.29882 73.53239 2525 ft 229 kts 358°
2026-04-17 05:29 4.31483 73.53208 3051 ft 229 kts 359°
2026-04-17 05:29 4.33091 73.53184 3549 ft 230 kts 359°
2026-04-17 05:29 4.34694 73.53166 4016 ft 231 kts
2026-04-17 05:30 4.36325 73.53153 4451 ft 234 kts
2026-04-17 05:30 4.37982 73.53143 4931 ft 236 kts
2026-04-17 05:30 4.39635 73.53152 5365 ft 238 kts
2026-04-17 05:30 4.41152 73.53705 5747 ft 236 kts 41°
2026-04-17 05:31 4.41955 73.55102 6100 ft 237 kts 79°
2026-04-17 05:31 4.42070 73.56761 6516 ft 240 kts 88°
2026-04-17 05:31 4.42102 73.58450 6949 ft 241 kts 88°
2026-04-17 05:31 4.42123 73.60132 7374 ft 243 kts 89°
2026-04-17 05:32 4.42132 73.61824 7820 ft 243 kts 90°
2026-04-17 05:32 4.41700 73.63450 8173 ft 248 kts 121°
2026-04-17 05:32 4.40311 73.64510 8478 ft 256 kts 160°
2026-04-17 05:32 4.38541 73.64711 8844 ft 260 kts 177°
2026-04-17 05:33 4.36721 73.64726 9258 ft 261 kts 178°
2026-04-17 05:33 4.34873 73.64731 9668 ft 262 kts 178°
2026-04-17 05:33 4.33048 73.64731 10053 ft 264 kts 178°
2026-04-17 05:33 4.31198 73.64732 10435 ft 265 kts 178°
2026-04-17 05:34 4.29329 73.64732 10791 ft 267 kts 178°
2026-04-17 05:34 4.27465 73.64731 11153 ft 269 kts 178°
2026-04-17 05:34 4.25571 73.64730 11486 ft 270 kts 178°
2026-04-17 05:34 4.23672 73.64730 11833 ft 272 kts 178°
2026-04-17 05:35 4.21763 73.64731 12149 ft 273 kts 179°
2026-04-17 05:35 4.19848 73.64732 12467 ft 275 kts 178°
2026-04-17 05:35 4.17912 73.64739 12781 ft 277 kts 179°
2026-04-17 05:35 4.15951 73.64745 13111 ft 277 kts 178°
2026-04-17 05:36 4.13989 73.64750 13409 ft 278 kts 179°
2026-04-17 05:36 4.12051 73.64754 13720 ft 279 kts 178°
2026-04-17 05:36 4.10085 73.64758 13901 ft 284 kts 178°
2026-04-17 05:36 4.08040 73.64762 13967 ft 293 kts 178°
2026-04-17 05:37 4.05964 73.64766 13984 ft 302 kts 178°
2026-04-17 05:37 4.03820 73.64769 13987 ft 310 kts 179°
2026-04-17 05:37 4.01610 73.64773 13980 ft 317 kts 179°
2026-04-17 05:37 3.99355 73.64775 13982 ft 324 kts 179°
2026-04-17 05:38 3.97083 73.64778 13979 ft 329 kts 179°
2026-04-17 05:38 3.94752 73.64778 13982 ft 333 kts 179°
2026-04-17 05:38 3.92439 73.64777 13979 ft 337 kts 179°
2026-04-17 05:38 3.90063 73.64775 13973 ft 340 kts 179°
2026-04-17 05:39 3.87676 73.64774 13971 ft 342 kts 179°
2026-04-17 05:39 3.85257 73.64772 13970 ft 343 kts 179°
2026-04-17 05:39 3.82869 73.64676 13956 ft 345 kts 186°
2026-04-17 05:39 3.80506 73.64149 13975 ft 346 kts 193°
2026-04-17 05:40 3.78143 73.63539 13974 ft 347 kts 193°
2026-04-17 05:40 3.75791 73.62931 13973 ft 347 kts 193°
2026-04-17 05:40 3.73434 73.62325 13970 ft 348 kts 193°
2026-04-17 05:40 3.71077 73.61723 13967 ft 346 kts 193°
2026-04-17 05:41 3.68744 73.61129 13967 ft 344 kts 193°
2026-04-17 05:41 3.66417 73.60542 13967 ft 342 kts 193°
2026-04-17 05:41 3.64100 73.59957 13967 ft 341 kts 193°
2026-04-17 05:41 3.61768 73.59367 13967 ft 340 kts 193°
2026-04-17 05:42 3.59928 73.58902 13967 ft 339 kts 193°
2026-04-17 05:42 3.58011 73.58416 13968 ft 339 kts 193°
2026-04-17 05:42 3.55728 73.57838 13968 ft 338 kts 193°
2026-04-17 05:42 3.53413 73.57250 13966 ft 340 kts 193°
2026-04-17 05:43 3.51130 73.56671 13962 ft 341 kts 193°
2026-04-17 05:43 3.48791 73.56078 13956 ft 343 kts 193°
2026-04-17 05:43 3.46451 73.55484 13951 ft 344 kts 193°
2026-04-17 05:43 3.44104 73.54889 13949 ft 345 kts 193°
2026-04-17 05:44 3.41766 73.54295 13948 ft 346 kts 193°
2026-04-17 05:44 3.39413 73.53696 13949 ft 346 kts 193°
2026-04-17 05:44 3.37064 73.53093 13948 ft 346 kts 193°
2026-04-17 05:44 3.34668 73.52673 13942 ft 345 kts 183°
2026-04-17 05:45 3.32261 73.52616 13945 ft 345 kts 179°
2026-04-17 05:45 3.29860 73.52592 13948 ft 345 kts 179°
2026-04-17 05:45 3.27426 73.52568 13950 ft 346 kts 180°
2026-04-17 05:45 3.24983 73.52544 13950 ft 346 kts 179°
2026-04-17 05:46 3.22574 73.52518 13949 ft 346 kts 179°
2026-04-17 05:46 3.20156 73.52490 13948 ft 347 kts 180°
2026-04-17 05:46 3.17702 73.52461 13949 ft 347 kts 180°
2026-04-17 05:46 3.15268 73.52432 13948 ft 347 kts 180°
2026-04-17 05:47 3.12852 73.52402 13946 ft 344 kts 180°
2026-04-17 05:47 3.10445 73.52372 13946 ft 341 kts 180°
2026-04-17 05:47 3.08054 73.52343 13946 ft 340 kts 180°
2026-04-17 05:47 3.05672 73.52312 13946 ft 338 kts 180°
2026-04-17 05:48 3.03321 73.52283 13947 ft 337 kts 180°
2026-04-17 05:48 3.00956 73.52253 13948 ft 336 kts 180°
2026-04-17 05:48 2.98612 73.52222 13947 ft 335 kts 180°
2026-04-17 05:48 2.96261 73.52193 13948 ft 335 kts 180°
2026-04-17 05:49 2.93921 73.52162 13948 ft 335 kts 180°
2026-04-17 05:49 2.91560 73.52132 13948 ft 334 kts 180°
2026-04-17 05:49 2.89220 73.52102 13947 ft 334 kts 180°
2026-04-17 05:49 2.86878 73.52071 13948 ft 334 kts 180°
2026-04-17 05:50 2.84557 73.52042 13948 ft 334 kts 180°
2026-04-17 05:50 2.82196 73.52011 13948 ft 334 kts 180°
2026-04-17 05:50 2.79881 73.51981 13949 ft 334 kts 180°
2026-04-17 05:50 2.77539 73.51951 13950 ft 334 kts 180°
2026-04-17 05:51 2.75179 73.51920 13952 ft 333 kts 180°
2026-04-17 05:51 2.72848 73.51890 13954 ft 333 kts 180°
2026-04-17 05:51 2.70523 73.51860 13956 ft 333 kts 180°
2026-04-17 05:51 2.68213 73.51829 13959 ft 333 kts 180°
2026-04-17 05:52 2.65877 73.51800 13964 ft 333 kts 180°
2026-04-17 05:52 2.63538 73.51770 13966 ft 333 kts 180°
2026-04-17 05:52 2.61200 73.51740 13967 ft 333 kts 180°
2026-04-17 05:52 2.58883 73.51711 13968 ft 333 kts 180°
2026-04-17 05:53 2.56525 73.51680 13968 ft 333 kts 179°
2026-04-17 05:53 2.54203 73.51650 13969 ft 333 kts 180°
2026-04-17 05:53 2.51857 73.51620 13969 ft 333 kts 179°
2026-04-17 05:53 2.49540 73.51590 13969 ft 333 kts 180°
2026-04-17 05:54 2.47198 73.51559 13969 ft 333 kts 179°
2026-04-17 05:54 2.44869 73.51529 13959 ft 334 kts 180°
2026-04-17 05:54 2.42471 73.51498 13713 ft 342 kts 180°
2026-04-17 05:54 2.40052 73.51466 13243 ft 355 kts 180°
2026-04-17 05:55 2.37577 73.51434 12670 ft 352 kts 180°
2026-04-17 05:55 2.35167 73.51406 12111 ft 340 kts 180°
2026-04-17 05:55 2.32827 73.51379 11570 ft 329 kts 180°
2026-04-17 05:55 2.30536 73.51352 11039 ft 319 kts 180°
2026-04-17 05:56 2.28337 73.51325 10530 ft 310 kts 180°
2026-04-17 05:56 2.26196 73.51299 10034 ft 302 kts 180°
2026-04-17 05:56 2.24111 73.51274 9552 ft 294 kts 180°
2026-04-17 05:56 2.22086 73.51249 9083 ft 287 kts 180°
2026-04-17 05:57 2.20116 73.51224 8626 ft 281 kts 180°
2026-04-17 05:57 2.18150 73.51201 8173 ft 275 kts 180°
2026-04-17 05:57 2.16242 73.51177 7730 ft 270 kts 180°
2026-04-17 05:57 2.14370 73.51154 7296 ft 265 kts 180°
2026-04-17 05:58 2.12526 73.51131 6868 ft 261 kts 180°
2026-04-17 05:58 2.10738 73.51109 6454 ft 256 kts 180°
2026-04-17 05:58 2.08953 73.51086 6040 ft 252 kts 181°
2026-04-17 05:59 2.05484 73.51043 5231 ft 244 kts 180°
2026-04-17 05:59 2.03823 73.51327 4686 ft 242 kts 151°
2026-04-17 05:59 2.02684 73.52469 4342 ft 229 kts 119°
2026-04-17 05:59 2.01958 73.53870 3983 ft 223 kts 114°
2026-04-17 06:00 2.01280 73.55258 3624 ft 216 kts 114°
2026-04-17 06:00 2.00633 73.56580 3249 ft 213 kts 117°
2026-04-17 06:00 1.99592 73.57613 2735 ft 211 kts 159°
2026-04-17 06:00 1.98210 73.57644 2463 ft 192 kts 200°
2026-04-17 06:01 1.97010 73.57162 2213 ft 179 kts 205°
2026-04-17 06:01 1.95915 73.56688 1966 ft 156 kts 206°
2026-04-17 06:01 1.94982 73.56273 1828 ft 142 kts 207°
2026-04-17 06:01 1.94076 73.55853 1644 ft 145 kts 207°
2026-04-17 06:02 1.93134 73.55411 1440 ft 149 kts 207°
2026-04-17 06:02 1.92224 73.54991 1203 ft 137 kts 206°
2026-04-17 06:02 1.91406 73.54619 1010 ft 123 kts 209°
2026-04-17 06:02 1.91051 73.54449 944 ft 121 kts 209°
2026-04-17 06:03 1.90731 73.54295 884 ft 122 kts 210°
2026-04-17 06:03 1.89947 73.53912 765 ft 130 kts 210°
2026-04-17 06:03 1.89090 73.53523 693 ft 135 kts 206°
2026-04-17 06:04 1.88207 73.53141 530 ft 139 kts 206°
2026-04-17 06:04 1.87343 73.52749 261 ft 133 kts 208°
2026-04-17 06:04 1.86503 73.52349 54 ft 133 kts 208°
2026-04-17 06:04 1.85830 73.52032 28 ft 72 kts 205°
2026-04-17 06:05 1.85543 73.51901 29 ft 11 kts 206°
2026-04-17 06:05 1.85529 73.51879 29 ft 3 kts
2026-04-17 06:05 1.85587 73.51920 29 ft 19 kts 26°
2026-04-17 06:05 1.85746 73.51992 28 ft 21 kts 22°
2026-04-17 06:06 1.85793 73.51959 27 ft 8 kts 309°
2026-04-17 06:06 1.85827 73.51958 27 ft 4 kts 26°
2026-04-17 06:06 1.85835 73.51962 27 ft 0 kts 25°
2026-04-17 06:24 1.85839 73.51964 27 ft 4 kts 25°
2026-04-17 06:24 1.85866 73.51991 28 ft 5 kts 103°
2026-04-17 06:24 1.85851 73.52023 28 ft 4 kts 118°
2026-04-17 06:25 1.85802 73.52020 28 ft 11 kts 207°
2026-04-17 06:25 1.85708 73.51975 28 ft 18 kts 206°
2026-04-17 06:25 1.85584 73.51917 29 ft 15 kts 204°
2026-04-17 06:25 1.85533 73.51871 29 ft 7 kts 196°
2026-04-17 06:26 1.85538 73.51894 29 ft 2 kts 29°
2026-04-17 06:26 1.85539 73.51895 29 ft 0 kts 27°
2026-04-17 06:26 1.85636 73.51942 28 ft 55 kts 25°
2026-04-17 06:26 1.86243 73.52230 27 ft 130 kts 26°
2026-04-17 06:27 1.87094 73.52674 425 ft 139 kts 27°
2026-04-17 06:27 1.87955 73.53163 1087 ft 145 kts 27°
2026-04-17 06:27 1.88822 73.53655 1710 ft 147 kts 28°
2026-04-17 06:27 1.89840 73.53857 2155 ft 156 kts 342°
2026-04-17 06:28 1.90724 73.53182 2568 ft 174 kts 312°
2026-04-17 06:28 1.91551 73.52156 2686 ft 213 kts 308°
2026-04-17 06:28 1.92527 73.50831 2588 ft 242 kts 306°
2026-04-17 06:28 1.93502 73.49435 2529 ft 247 kts 306°
2026-04-17 06:29 1.94503 73.47988 2759 ft 252 kts 305°